Location: Camaret
(48.2753°N, 4.5961°W)
Time: 01:03:57
(UTC+00:00)

BREEZE-M R/B - Pass Details

Date: 29 October 2020
Orbit: 309 x 4522 km, 49.7° (Epoch: 26 November)

Event Time Altitude Azimuth Distance (km) Brightness Sun altitude
Rises 20:06:36 0° 288° (WNW) 2,856 7.6 -30.8°
Reaches altitude 10° 20:08:18 10° 284° (WNW) 2,201 6.8 -31.1°
Maximum altitude 20:13:13 61° 204° (SSW) 1,247 4.4 -31.9°
Enters shadow 20:13:24 61° 196° (SSW) 1,268 4.4 -31.9°
